ECMWFFLT2_sfc_dewp_102.txt.gz
Dewpoint
19 19 22 22 24 23 24 26 26 27 30 31 34 39 39 39 35 34 48 46 52 53 54 55 56 57 56 55 56 57 59 61 62 62 63 62 61 61 61 62 61 62 62 61 62 62 61 61 60 63 67 69 71 71 71 72 73 72 71 73 72 73 74
19 20 18 19 23 22 24 22 25 27 29 31 34 31 33 32 31 44 42 44 46 46 46 53 54 56 58 56 56 58 59 61 61 61 63 63 63 63 64 64 64 63 63 63 63 63 64 62 61 65 70 69 71 71 71 70 71 72 70 70 70 71 73
18 19 18 17 21 22 17 23 26 24 28 30 36 34 30 30 34 36 36 39 49 52 48 50 53 55 59 58 57 57 59 60 61 60 61 63 62 63 67 70 67 64 64 64 65 65 65 66 66 66 69 68 69 69 68 69 70 69 68 68 69 71 71
17 17 17 16 14 17 19 21 19 24 27 31 35 34 35 36 37 36 37 37 43 50 45 51 57 58 57 56 54 55 57 60 61 62 62 64 66 68 69 66 66 64 63 63 65 65 66 67 67 66 68 64 64 66 67 69 70 71 69 67 69 68 69
16 16 17 14 13 13 17 19 19 20 25 30 33 33 33 33 42 40 42 41 45 47 52 55 56 58 58 55 55 58 59 59 61 62 62 65 67 66 68 72 67 68 62 61 65 67 70 67 67 67 67 66 66 67 67 69 70 66 65 65 68 69 69
14 13 17 16 14 14 16 18 19 18 21 26 29 29 30 31 34 35 33 37 48 52 59 57 52 55 58 62 57 59 59 60 61 61 62 65 66 68 69 68 69 68 69 62 64 66 65 66 67 68 67 68 68 67 65 66 63 66 66 68 70 71 71
18 15 13 16 16 14 15 17 18 18 18 26 28 25 29 29 30 31 33 35 44 51 57 56 56 60 61 61 58 58 59 60 59 61 64 68 68 68 69 70 71 72 69 71 69 69 71 66 69 68 68 71 70 72 76 72 70 71 70 71 73 73 73
23 22 21 15 14 13 12 12 14 16 16 17 19 22 27 28 31 34 33 35 47 51 58 60 58 61 60 62 59 56 59 60 61 62 65 66 67 68 69 69 70 70 69 70 70 70 71 71 71 71 71 72 74 74 76 74 74 73 73 74 74 74 72
24 20 20 13 11 10 9 8 11 14 15 18 18 17 32 31 26 28 31 28 40 53 56 58 59 62 60 60 59 60 60 60 60 63 64 65 67 67 68 69 69 70 72 71 70 70 71 71 71 71 70 68 71 73 73 73 73 72 74 74 74 74 72
21 21 18 17 13 10 9 9 8 14 13 15 16 15 30 27 38 32 29 29 46 54 57 57 57 60 61 61 62 59 60 61 61 62 63 64 66 67 68 68 68 68 68 70 70 71 71 71 71 72 72 71 72 74 73 73 73 73 74 75 75 74 73
29 29 37 32 25 15 6 4 5 4 9 12 15 18 23 19 27 26 41 46 50 50 55 55 56 56 58 60 62 59 59 60 62 64 66 65 65 67 66 66 67 67 68 68 70 70 69 70 71 72 73 73 73 73 74 74 74 73 74 76 77 76 75
32 30 30 27 28 21 11 3 4 9 10 13 14 13 15 43 28 23 51 51 49 48 52 55 56 58 58 60 60 61 61 60 61 63 65 65 66 67 67 66 65 66 66 68 68 70 71 72 72 70 72 72 73 73 73 74 74 72 73 73 76 77 76
26 25 25 27 24 20 21 17 8 10 9 11 14 15 13 23 23 39 51 49 48 51 54 56 59 59 59 59 60 63 63 61 61 62 65 64 64 66 65 66 66 66 67 68 68 68 70 71 70 71 72 73 74 73 73 73 71 72 73 73 74 73 75
26 26 25 24 23 22 22 21 11 7 8 9 10 11 9 13 34 54 52 53 52 53 54 57 59 60 60 62 63 63 62 62 64 61 63 63 62 63 64 66 67 67 67 68 69 69 70 70 70 70 72 72 72 73 72 71 71 73 75 75 75 75 75
28 28 27 23 22 21 20 20 20 35 36 33 4 7 9 18 17 45 49 54 54 58 58 59 60 60 60 60 61 63 63 62 64 63 62 62 63 63 65 66 64 66 67 68 69 69 69 69 71 70 71 71 71 71 72 72 72 74 74 74 74 74 74
29 27 28 31 19 21 22 36 40 42 39 42 44 43 29 31 36 43 48 52 53 57 59 60 59 59 59 59 60 62 62 63 63 64 64 64 65 65 66 65 65 65 67 67 68 68 69 69 69 70 70 71 70 71 71 71 72 73 73 72 72 73 73
29 29 34 33 37 32 32 35 39 44 45 47 47 45 46 47 45 42 40 50 55 56 58 57 58 59 59 59 60 61 64 63 62 63 63 63 64 65 66 65 66 65 66 67 67 67 68 68 68 69 68 67 67 69 70 71 72 72 72 73 73 73 72
32 32 31 34 37 36 38 43 43 46 46 48 47 47 49 50 50 53 53 53 56 55 56 56 57 60 61 62 63 63 63 64 63 62 63 63 64 65 64 64 65 65 65 65 65 65 65 66 66 65 65 64 64 66 67 69 69 70 70 71 71 71 71
31 35 35 33 32 37 38 43 45 45 46 47 48 50 51 53 54 53 54 56 56 57 60 60 60 62 62 63 61 62 63 63 63 62 62 64 65 63 63 63 63 64 64 63 63 63 63 63 63 62 62 62 63 63 65 65 66 67 67 67 68 68 69
34 33 37 30 32 40 40 38 42 45 45 45 47 49 50 53 53 55 55 55 56 58 59 62 63 61 59 59 61 62 63 64 63 64 65 65 63 62 63 63 63 63 63 63 63 63 63 63 62 61 61 61 61 62 63 64 64 64 64 65 66 68 68
33 33 35 39 44 41 42 45 40 40 48 45 46 48 49 51 54 55 54 56 58 57 58 61 55 55 54 56 59 60 61 63 63 63 63 65 64 64 62 62 61 62 62 62 62 62 62 62 62 62 63 62 62 62 62 62 63 63 63 64 64 65 66
36 34 34 39 35 35 40 42 39 38 40 42 46 45 45 53 55 55 56 56 57 57 59 59 55 54 52 52 55 58 59 60 61 62 61 61 62 63 63 63 62 62 61 61 61 61 62 60 61 61 61 61 59 59 58 59 60 62 62 62 63 64 64
34 34 34 31 33 40 46 47 40 39 38 40 44 39 38 47 52 55 55 56 57 57 57 56 56 53 51 51 53 55 58 61 62 62 61 61 62 63 64 64 63 64 63 62 60 59 59 60 58 58 58 58 57 56 58 58 58 59 60 61 62 63 63
35 36 37 34 43 39 45 44 41 38 46 44 38 34 38 46 48 56 56 57 57 57 58 58 57 56 52 51 55 56 56 58 60 61 61 61 62 62 61 61 61 62 64 62 58 55 55 55 53 54 56 57 58 58 57 56 57 58 59 60 61 62 63
32 36 35 41 44 44 43 44 42 45 45 42 32 35 42 47 50 52 55 57 58 58 59 58 57 58 59 58 57 56 57 58 59 60 60 59 58 59 59 60 62 61 59 58 54 51 53 54 54 54 54 53 53 55 55 54 52 53 57 59 61 62 61
33 41 36 39 42 46 42 45 45 47 47 40 40 42 48 49 50 49 52 55 56 58 58 58 58 61 55 56 55 55 56 56 57 58 58 58 56 56 59 60 57 53 51 52 50 51 53 52 51 53 55 56 56 53 51 54 56 56 57 57 56 56 57
38 41 38 36 33 45 43 46 44 48 42 46 47 47 48 50 50 50 52 53 53 54 58 57 55 54 54 54 54 53 53 53 55 56 56 56 56 56 56 55 54 53 52 51 50 51 50 51 52 53 55 57 57 57 56 55 52 53 54 57 59 59 58
35 34 33 34 44 45 46 47 47 47 48 48 49 47 46 50 50 50 52 54 56 55 57 56 56 54 54 54 53 53 53 53 53 56 56 56 56 55 53 52 52 53 52 52 50 50 50 52 53 55 56 56 57 56 57 59 57 56 55 54 57 54 57
43 40 40 43 45 43 43 46 46 47 47 46 46 46 47 49 51 53 52 53 54 57 56 54 55 54 55 53 53 53 52 52 52 54 56 55 55 53 52 51 54 53 52 52 51 52 52 53 54 56 56 55 56 56 57 58 59 59 58 58 58 55 54
42 42 43 44 44 45 44 44 45 44 44 44 46 47 47 48 51 53 53 51 52 54 59 56 56 55 54 54 52 52 52 51 53 56 55 56 56 54 53 53 53 52 51 52 53 52 53 53 54 56 55 55 55 56 55 57 57 57 57 58 58 59 58
37 36 43 42 42 43 42 42 44 46 46 46 46 47 47 48 49 50 51 52 53 54 57 58 58 58 59 56 54 53 53 53 53 52 54 56 58 56 54 54 54 51 51 50 50 50 51 53 54 54 55 55 57 57 57 55 57 58 57 57 57 58 57
33 39 42 41 41 43 43 42 42 43 44 45 47 49 48 48 48 48 49 50 51 52 53 56 57 59 58 56 57 54 55 55 55 55 54 57 56 57 57 57 58 54 53 52 53 53 55 54 54 53 54 54 56 56 55 54 54 57 58 57 56 55 53
41 42 41 40 42 41 45 46 46 46 45 45 46 46 45 45 47 47 46 47 48 49 51 52 53 53 57 56 55 54 53 55 56 57 56 56 57 57 54 54 56 55 53 53 54 53 54 55 56 56 57 57 58 57 55 55 55 53 53 53 54 49 48
34 36 38 40 37 38 41 43 44 45 46 46 45 46 45 44 45 49 49 47 47 48 48 51 53 54 56 57 56 55 54 55 57 57 57 57 57 56 54 55 55 55 55 55 54 54 55 56 56 56 56 54 53 50 51 52 54 54 54 54 53 52 51
37 40 42 47 48 47 46 45 44 45 46 48 48 46 47 47 46 46 48 49 48 47 47 49 52 54 54 54 57 58 59 57 57 58 58 56 57 57 55 55 56 55 55 56 56 56 56 55 54 53 54 53 54 51 53 54 53 56 56 56 53 48 51
41 42 42 42 43 47 47 46 46 46 48 47 46 48 47 47 47 48 48 47 49 50 50 47 48 50 53 53 54 58 57 57 60 59 56 57 56 56 56 57 58 57 56 56 56 57 56 55 53 54 52 53 55 51 53 54 54 55 55 55 58 53 51
41 44 44 45 49 48 48 48 47 46 46 49 49 49 49 48 46 47 48 49 48 49 50 50 49 49 51 50 52 53 54 57 58 59 60 59 56 56 55 56 57 58 58 57 57 57 56 56 54 53 51 52 52 49 54 52 52 54 55 54 49 48 51

ECMWFFLT2_sfc_dewp_105.txt.gz
Dewpoint
18 17 19 19 24 25 27 26 26 27 38 38 45 46 44 45 46 46 52 51 56 62 56 57 59 58 56 56 56 57 59 60 61 62 62 62 62 60 60 60 58 58 59 60 61 60 62 61 61 66 68 69 70 70 71 71 72 72 72 73 72 72 72
18 17 18 19 23 25 26 25 26 29 35 36 38 39 47 43 39 45 50 48 52 52 49 59 60 57 56 56 55 57 60 60 60 61 62 62 62 62 61 60 60 59 60 60 62 62 61 62 62 66 68 69 70 71 71 71 72 72 72 72 72 72 73
18 20 21 18 20 24 25 24 27 25 32 30 46 37 34 34 36 43 45 46 51 52 52 53 54 54 55 56 58 57 59 59 60 60 61 62 63 63 63 63 61 60 61 61 63 62 61 63 63 67 67 69 71 70 71 71 71 71 72 71 72 72 73
19 22 19 21 16 17 18 22 21 27 29 39 38 42 45 41 43 39 43 46 46 51 50 52 52 54 56 58 58 57 59 60 60 60 61 62 63 64 63 68 69 65 62 62 62 62 62 63 64 67 67 70 70 70 71 71 71 72 71 70 71 71 72
22 20 19 16 17 16 19 20 20 26 30 34 39 40 37 41 43 41 41 44 46 50 52 52 53 55 58 57 57 59 59 60 61 61 62 63 64 66 66 67 68 68 66 69 68 66 65 66 68 67 68 69 69 70 71 71 71 70 70 69 70 71 71
19 15 18 17 15 16 18 17 19 21 25 31 31 34 33 37 41 40 42 41 46 50 61 58 56 57 59 61 61 60 60 61 61 62 62 63 66 67 67 68 67 68 70 70 69 68 68 68 69 70 67 68 68 69 70 70 70 70 69 69 71 71 71
22 23 24 22 21 16 14 18 18 20 21 32 33 28 33 34 37 42 47 43 47 58 58 59 58 59 59 61 63 60 61 62 60 63 65 66 66 67 67 68 67 68 68 68 70 69 69 69 69 69 70 72 72 69 69 69 70 69 69 69 70 70 71
28 25 24 24 22 18 14 16 18 18 18 28 30 31 33 33 42 40 41 42 49 57 60 59 57 58 61 63 62 64 63 64 65 66 65 66 66 67 68 68 68 69 69 69 69 69 69 69 68 70 71 71 72 72 70 71 70 69 68 70 69 69 71
29 27 27 25 21 16 16 14 15 15 17 19 23 30 45 36 35 33 31 36 41 57 60 59 59 59 60 62 63 63 62 64 65 65 66 66 66 67 67 67 68 69 68 68 68 68 67 69 69 69 69 70 71 73 73 71 72 73 74 72 69 70 71
27 29 33 32 32 30 30 25 11 15 13 15 20 19 35 24 41 35 34 47 55 56 58 59 60 61 61 62 61 63 64 64 65 65 65 66 66 67 67 68 68 68 68 68 69 69 69 69 68 68 68 69 71 73 73 72 71 72 73 74 72 70 70
32 34 38 37 37 34 25 23 18 10 10 11 15 31 26 26 40 45 49 53 53 53 54 56 57 58 59 62 62 62 63 64 65 65 65 65 67 67 68 68 68 68 68 68 69 69 70 71 71 70 69 69 71 73 73 73 73 72 73 76 76 71 70
33 30 30 28 31 25 25 25 25 20 11 11 14 22 24 44 43 41 49 54 52 54 56 56 57 58 59 61 61 61 63 64 65 64 65 65 66 66 67 67 68 67 68 69 69 69 68 69 70 71 71 71 72 73 73 74 74 72 74 74 74 75 71
27 27 26 27 26 24 24 24 42 42 43 43 34 26 21 37 40 44 51 52 52 53 55 56 58 58 59 61 61 62 63 65 66 65 65 65 65 65 65 66 67 67 67 68 68 68 67 68 70 72 72 73 73 73 74 74 73 73 73 72 73 73 74
26 26 26 27 29 35 34 44 45 44 44 47 49 48 50 41 47 49 52 52 52 54 54 57 59 60 61 62 62 62 62 63 64 65 64 64 65 65 66 66 67 67 67 67 67 69 70 70 71 71 72 72 72 72 71 71 71 72 75 73 73 73 72
30 29 28 29 30 38 39 43 45 45 46 48 50 50 49 54 54 53 53 53 54 57 58 59 60 61 62 61 60 61 62 64 64 64 65 65 64 65 65 66 67 67 68 68 68 68 69 69 69 70 71 70 70 70 71 71 72 73 73 71 72 72 71
33 30 27 35 38 37 40 41 44 46 48 48 50 51 52 50 54 54 54 54 55 58 60 60 60 60 61 60 60 61 62 63 63 63 64 65 65 66 66 66 67 67 67 67 67 67 68 68 69 69 68 69 69 70 71 71 71 72 72 72 71 71 71
35 33 32 34 36 39 39 40 45 48 49 50 51 51 53 52 51 51 52 53 58 59 62 60 61 61 61 61 61 61 61 62 62 62 63 64 64 65 65 66 66 67 66 67 67 67 67 66 65 66 66 66 67 69 70 70 70 70 71 71 71 70 71
34 33 35 37 38 36 38 43 46 47 48 50 50 50 51 54 55 54 56 56 59 59 60 61 60 60 61 62 63 62 62 60 60 60 62 65 65 66 66 66 66 66 67 67 67 66 65 65 65 65 65 65 66 66 67 67 68 68 68 68 69 70 70
34 37 39 36 32 37 45 44 49 46 48 50 50 51 52 53 55 56 57 58 58 59 59 60 60 60 61 62 61 62 62 61 60 61 63 64 65 65 64 64 64 63 63 63 63 62 62 62 62 62 62 63 64 65 65 65 65 66 66 67 68 68 68
39 38 37 30 34 43 46 41 45 49 45 47 50 49 51 54 55 56 55 56 57 57 59 60 61 61 62 63 63 63 62 62 62 63 65 64 65 64 65 64 64 63 62 62 62 62 63 63 62 62 62 62 62 63 64 64 64 64 65 65 66 67 67
37 41 38 39 45 45 43 48 45 41 43 48 48 46 50 54 55 56 55 56 57 58 58 58 58 57 58 59 60 64 64 65 65 66 65 65 64 64 64 64 64 64 63 62 62 62 62 62 62 62 62 62 62 62 62 63 63 63 63 63 63 64 65
43 40 39 38 37 36 41 49 48 45 45 47 48 49 48 54 54 56 56 56 57 56 57 58 58 55 54 54 55 61 63 64 64 65 65 65 64 64 63 63 62 62 61 62 62 62 62 61 61 61 60 60 60 60 60 60 60 61 61 62 63 63 63
40 39 38 35 34 39 47 47 47 47 48 48 45 43 45 53 55 56 56 56 57 58 57 57 57 54 52 53 56 61 63 63 64 64 64 64 65 64 62 61 61 61 61 61 60 60 60 61 61 61 60 60 59 59 59 59 59 59 60 61 61 61 61
38 37 37 36 41 41 48 50 49 45 49 50 44 38 41 51 54 56 57 57 56 56 57 58 56 54 52 53 55 61 63 64 64 64 63 62 63 62 61 60 60 61 62 60 59 58 58 59 58 57 58 58 59 58 59 58 57 59 60 61 60 59 60
40 40 39 40 42 48 50 49 48 54 54 51 42 37 43 52 55 58 58 58 57 57 57 56 54 56 57 56 57 60 61 61 61 62 63 62 60 59 60 61 60 54 53 54 54 55 56 56 57 59 58 58 58 56 55 55 57 58 60 60 59 58 58
40 42 37 38 41 48 49 47 48 52 51 41 41 45 52 53 54 54 56 56 57 59 58 57 57 58 57 58 57 58 60 60 60 58 57 58 58 59 61 62 56 53 53 54 53 52 53 53 53 52 54 56 57 56 54 54 55 57 59 59 58 57 56
40 40 38 34 31 46 47 51 50 50 44 44 48 51 52 53 53 54 55 55 56 57 56 57 57 56 56 56 56 56 57 57 57 56 56 56 57 56 55 53 53 52 51 52 52 51 52 54 55 56 56 56 57 56 54 55 55 58 58 58 57 57 59
36 37 34 35 44 47 53 51 47 49 48 50 52 50 50 53 52 53 56 56 56 55 55 54 54 55 55 54 55 55 56 56 57 56 56 56 55 54 52 52 53 54 53 52 51 52 54 56 57 57 57 57 58 58 57 56 55 56 54 55 58 60 60
41 41 45 46 47 48 48 50 50 50 52 51 50 51 52 52 52 55 54 56 57 57 55 55 54 54 54 53 53 54 54 55 55 56 56 55 55 53 52 52 55 53 52 51 52 53 54 56 56 57 57 57 58 57 57 60 60 60 60 61 59 57 55
46 47 48 48 46 46 45 46 49 47 47 48 50 51 51 53 54 54 54 55 57 57 59 58 58 56 57 55 54 53 53 55 57 58 57 56 55 54 54 54 54 53 53 53 52 52 53 55 57 58 57 57 56 56 58 60 58 59 59 60 59 58 58
39 37 47 45 45 46 45 43 45 48 49 48 48 49 52 53 52 54 55 56 57 59 59 59 58 57 57 59 57 57 55 55 56 57 59 58 54 54 53 53 54 53 51 51 53 54 54 54 55 57 57 58 58 59 58 59 60 59 59 59 57 56 56
41 41 44 43 45 45 46 45 45 45 47 47 48 49 48 48 49 52 55 56 57 58 59 59 59 59 58 56 55 56 57 57 58 57 57 57 57 55 55 56 56 54 53 54 56 56 56 56 55 56 57 56 58 58 57 56 56 59 58 56 56 56 56
42 44 43 44 45 47 47 47 48 49 50 51 51 51 50 49 48 49 50 51 53 55 57 59 58 57 57 57 56 55 57 58 58 59 59 58 56 57 56 55 55 54 55 56 56 56 55 56 57 57 57 59 57 56 57 58 58 57 55 54 56 56 55
39 39 42 45 43 43 45 45 46 48 49 49 47 47 48 49 51 50 48 47 49 52 55 56 57 58 59 59 59 56 58 58 58 58 57 56 57 56 56 56 55 56 57 56 57 57 57 58 58 58 58 57 57 54 56 57 57 56 57 59 56 50 49
39 46 49 53 49 46 46 46 49 50 49 49 50 50 49 48 48 50 51 50 51 50 50 54 56 57 58 57 59 58 59 58 59 60 59 58 58 57 57 56 56 56 56 57 57 57 56 57 57 57 56 55 56 55 57 56 57 57 57 59 58 51 52
45 48 50 49 45 44 47 49 49 50 51 49 48 49 50 50 49 49 50 52 52 51 50 50 52 56 58 57 57 57 58 59 60 59 58 58 58 57 58 57 57 57 57 57 56 57 56 56 55 55 54 56 57 54 57 57 58 56 57 56 60 53 53
44 49 50 49 48 48 49 48 48 50 53 50 49 48 49 48 49 52 52 50 51 53 52 51 51 53 54 57 58 58 59 59 60 60 61 61 59 57 56 58 57 57 58 57 58 57 56 57 55 56 55 55 55 53 56 56 56 56 56 55 54 54 55

ECMWFFLT2_sfc_dewp_108.txt.gz
Dewpoint
20 24 21 21 28 30 29 33 32 36 40 46 45 47 46 46 47 46 52 51 55 61 61 55 54 56 57 57 58 57 58 61 61 61 60 60 60 61 60 57 57 56 56 58 59 59 61 62 65 67 68 69 69 70 69 71 71 71 72 72 72 73 74
19 21 20 20 22 29 28 25 27 36 41 44 43 42 44 43 40 44 50 49 51 50 48 60 57 56 56 56 57 58 58 60 61 61 60 60 61 61 61 59 58 58 58 58 59 60 61 61 66 67 69 69 70 70 69 71 72 71 71 72 71 73 74
22 23 20 19 20 27 25 25 30 32 36 36 40 40 38 38 37 41 47 49 49 51 51 57 55 55 53 56 57 57 57 59 60 61 60 60 61 61 61 60 59 59 59 59 59 60 62 62 67 67 69 69 70 70 70 71 72 71 71 71 71 72 74
24 21 18 19 21 19 23 23 20 38 39 38 35 36 40 38 40 39 42 45 43 51 52 58 55 54 54 55 57 57 58 59 60 60 61 61 61 62 63 64 64 61 59 60 60 61 62 63 66 68 69 70 70 70 70 70 72 72 71 71 72 72 73
23 21 21 19 20 19 18 18 25 28 36 38 38 42 38 39 40 39 40 40 44 48 52 56 53 54 55 56 57 59 58 59 60 60 61 61 62 64 65 66 66 65 65 64 62 62 62 64 67 68 69 69 70 71 71 71 72 72 71 71 72 71 72
24 23 25 25 24 19 20 19 20 23 32 33 31 32 37 44 40 38 39 38 46 50 57 53 51 52 56 58 57 60 61 62 63 64 66 62 65 64 64 65 67 67 67 66 66 66 65 66 67 68 69 69 70 71 71 71 71 72 71 71 72 71 72
24 24 26 27 27 26 19 18 17 24 31 33 34 29 33 40 43 44 43 41 43 52 60 60 57 58 59 60 61 61 61 62 62 64 65 66 66 65 64 65 67 68 67 66 66 66 66 66 67 68 69 69 70 71 71 71 71 71 71 71 72 72 72
34 32 31 31 31 28 25 22 24 23 21 31 30 30 34 40 43 40 41 41 46 54 61 59 59 60 62 62 61 62 61 62 63 64 65 65 65 66 67 65 67 67 67 68 68 68 67 67 67 68 69 70 70 71 71 71 71 71 71 71 71 72 72
30 32 36 32 33 31 31 31 29 40 41 31 31 38 42 40 39 37 35 34 38 49 60 59 59 60 60 61 63 63 63 63 64 64 65 65 66 66 66 66 67 67 67 67 67 67 67 67 68 68 69 70 70 70 71 71 71 71 71 71 71 71 71
26 28 29 29 29 30 32 32 38 45 45 44 21 27 34 34 41 39 37 38 48 56 58 59 60 61 60 61 62 64 64 64 65 65 65 66 66 66 66 66 66 66 67 67 67 67 67 68 68 69 69 70 70 70 70 70 70 71 71 70 70 70 71
32 32 35 37 42 34 32 37 45 47 49 49 27 33 32 24 39 38 47 47 50 54 56 57 58 59 59 60 61 62 64 65 65 65 65 66 66 66 66 66 67 67 66 67 67 68 68 68 68 69 69 70 70 70 70 70 70 71 71 70 70 70 70
34 33 37 34 35 34 44 45 46 48 49 50 49 34 23 38 40 37 49 53 50 52 55 57 58 59 59 59 61 63 64 64 64 65 66 66 66 66 67 67 66 66 66 67 68 68 68 69 69 69 70 71 71 71 71 71 71 71 70 70 69 70 70
34 35 39 33 41 45 46 47 47 48 49 51 50 50 51 46 35 35 48 52 52 55 56 57 58 59 59 60 61 62 64 64 65 65 65 65 66 66 67 66 66 66 67 67 67 68 68 69 68 68 68 68 68 69 70 70 71 70 71 71 71 70 70
33 36 41 40 41 46 47 48 48 49 50 50 51 51 52 50 48 51 54 55 55 57 58 60 61 61 61 61 62 62 64 64 64 64 64 64 65 66 66 66 66 67 67 67 67 68 68 68 67 68 68 69 69 69 70 70 70 70 71 71 71 70 69
34 36 37 42 41 46 46 48 49 50 50 50 51 51 52 54 54 56 56 55 55 58 60 60 61 60 60 61 62 62 63 64 64 64 64 64 64 65 66 66 66 67 67 68 68 67 67 67 67 67 68 68 69 69 70 70 70 71 71 70 69 69 69
33 37 36 38 39 42 42 45 49 50 50 50 51 51 53 52 51 54 54 54 54 59 61 62 62 61 60 61 61 62 63 64 64 63 64 64 64 65 66 66 67 67 67 67 67 67 67 68 68 68 68 68 69 69 70 70 70 70 69 69 69 69 69
35 38 38 39 42 41 41 42 44 50 51 51 51 52 53 53 54 53 53 53 57 60 62 60 60 60 60 60 61 61 61 62 63 63 64 65 65 65 66 66 66 66 66 66 66 67 67 67 67 68 68 68 68 69 69 70 70 70 70 70 69 69 70
34 36 39 43 39 37 39 49 50 51 51 52 51 51 52 54 55 56 58 58 60 60 60 59 59 60 60 61 61 61 60 61 62 64 64 65 65 66 66 66 66 66 66 66 66 66 65 66 67 67 67 67 67 68 69 69 69 69 69 69 70 70 70
32 37 38 36 34 36 48 47 53 54 51 52 52 53 53 54 56 56 56 57 58 58 59 59 60 60 61 62 61 60 61 62 63 64 64 64 64 64 64 64 63 63 63 63 63 64 64 65 65 65 65 66 66 67 67 67 68 68 68 68 68 68 69
38 37 35 29 32 44 47 49 46 48 50 50 50 50 53 54 55 56 55 56 57 58 59 60 60 60 60 61 62 62 63 64 64 63 63 63 63 63 64 63 63 63 64 63 63 63 64 63 64 64 64 65 65 65 66 66 66 66 67 66 66 67 67
31 36 35 36 43 44 43 47 45 46 46 48 48 47 50 54 55 55 55 56 57 58 58 59 59 58 58 58 60 63 64 63 63 63 63 63 63 63 64 64 64 64 64 63 63 62 61 61 61 61 62 63 63 63 63 63 63 63 63 63 64 65 65
40 34 32 33 33 32 38 45 49 48 49 47 49 49 47 53 56 57 56 55 56 57 58 58 57 56 55 54 56 61 63 63 62 63 63 63 63 63 63 63 64 63 63 62 61 60 59 59 60 60 60 60 60 60 60 61 61 61 61 61 62 63 63
36 35 31 30 31 35 43 45 46 48 49 50 49 42 42 50 56 57 57 56 57 56 57 57 56 54 52 53 56 61 62 63 63 62 63 63 62 62 63 62 62 62 62 60 60 59 58 58 59 60 60 60 59 59 59 59 59 59 59 59 60 61 61
38 34 32 32 37 37 45 48 48 47 49 51 43 37 39 50 56 58 57 56 56 57 57 57 54 53 52 54 57 62 63 63 63 63 62 62 62 62 62 62 62 62 62 60 58 57 57 57 59 60 59 59 59 58 58 59 58 58 58 59 59 59 60
40 41 35 37 37 44 49 49 50 50 54 48 39 35 42 52 57 58 58 57 58 58 57 56 53 54 56 58 60 62 62 62 62 63 63 61 61 59 58 58 59 57 57 57 57 57 58 58 57 56 57 58 59 59 58 57 58 58 58 58 58 58 59
36 37 34 35 37 43 48 49 49 50 47 39 38 44 51 55 55 58 59 58 57 57 57 56 56 57 58 59 60 60 60 60 60 60 60 60 59 57 57 58 57 54 53 54 54 54 54 54 55 55 55 55 55 55 55 56 58 59 59 58 57 57 58
38 38 34 31 30 40 48 49 48 49 43 43 46 52 55 57 55 56 57 58 58 58 56 56 56 57 57 59 59 59 59 58 58 58 59 58 58 55 53 53 55 53 52 52 52 53 53 52 53 54 56 57 58 57 56 57 58 57 57 56 57 59 61
33 34 31 31 35 46 51 48 44 47 47 49 52 52 53 55 56 56 56 56 57 57 55 55 55 56 57 58 59 58 57 57 57 58 58 59 58 54 51 52 54 55 53 54 55 56 57 57 57 58 57 56 55 53 53 55 57 60 59 58 58 59 59
37 35 40 43 46 47 48 50 49 50 53 53 52 53 54 55 54 58 56 56 56 56 55 55 55 54 55 57 58 57 56 56 56 56 56 55 54 51 52 53 54 53 53 54 55 56 56 57 57 57 57 58 58 57 58 60 59 58 58 60 59 58 58
46 47 46 48 45 46 47 48 50 50 51 52 53 52 52 54 55 56 56 56 57 57 57 55 55 54 53 55 56 56 56 56 56 56 55 54 54 53 53 52 53 53 53 54 54 55 55 56 57 58 56 56 56 55 58 59 57 58 58 59 58 57 58
38 38 45 45 45 46 46 46 47 48 49 50 51 52 53 54 55 56 57 57 57 58 57 55 55 56 56 55 55 56 56 56 56 55 55 54 53 52 52 54 54 52 52 53 54 55 55 55 56 56 56 56 56 57 57 58 58 58 59 58 59 57 54
39 42 45 47 47 47 47 45 44 45 46 47 48 49 50 51 54 55 58 59 59 59 57 57 55 55 55 55 56 56 56 56 57 55 54 53 53 53 54 54 53 53 53 53 54 55 55 54 56 56 56 56 57 56 56 56 56 58 56 54 56 55 55
42 44 45 47 46 46 47 48 49 51 50 49 49 50 49 48 48 50 52 56 58 58 58 57 56 56 56 55 56 56 57 57 56 55 54 53 54 55 53 53 54 54 55 56 56 55 54 54 54 55 56 56 56 55 56 56 57 58 58 59 59 52 51
39 39 42 43 40 41 44 46 47 47 48 48 48 49 49 49 48 49 50 50 53 56 58 57 57 56 56 56 56 56 56 56 56 55 55 55 54 54 54 55 55 56 56 55 55 55 54 55 56 56 56 55 55 56 56 56 56 58 59 55 50 50 52
38 41 44 47 45 44 45 47 49 49 48 47 47 47 48 50 50 49 48 49 49 51 53 57 56 56 57 57 57 57 57 57 56 55 54 54 54 54 55 55 55 55 55 56 56 56 55 56 56 56 54 54 54 55 55 56 57 55 57 58 53 52 54
45 44 48 46 44 43 47 48 48 49 50 49 49 49 49 49 50 51 51 49 49 50 51 53 57 57 57 57 57 57 58 58 57 57 56 55 54 54 55 54 55 56 56 56 55 56 54 55 55 54 54 54 54 55 56 56 56 54 55 56 56 51 53
45 48 46 46 46 48 50 50 50 50 50 48 47 48 49 49 49 50 51 51 51 50 50 51 52 54 56 57 57 57 57 59 60 61 62 60 57 55 55 55 55 55 55 55 55 55 55 54 53 54 53 54 54 55 55 55 55 55 54 55 55 52 53

ECMWFFLT2_sfc_dewp_111.txt.gz
Dewpoint
21 35 48 48 49 43 41 41 39 39 43 46 45 47 47 47 44 44 50 51 53 59 61 60 60 58 57 58 59 59 58 58 58 59 60 60 61 58 55 55 57 59 61 62 62 62 63 63 64 65 66 67 68 69 70 70 70 72 72 73 73 73 73
24 24 39 47 47 39 37 40 41 39 41 44 43 40 41 41 37 42 49 49 50 48 47 60 58 55 56 57 57 58 58 58 58 59 60 60 60 61 57 55 56 57 60 62 62 63 63 63 64 65 66 67 68 69 70 70 70 71 72 72 73 73 73
25 24 32 43 48 33 42 44 35 38 38 37 40 41 38 37 37 39 46 49 50 50 50 56 57 54 53 55 57 57 57 57 58 59 60 60 60 61 60 57 56 56 58 61 62 63 63 63 64 65 67 68 68 69 69 70 70 71 71 72 72 73 73
25 22 21 28 22 22 20 27 31 40 38 38 37 37 40 38 39 37 39 45 43 50 49 56 57 55 53 54 56 57 58 57 58 59 60 60 60 60 61 59 57 56 56 59 61 62 63 63 64 66 67 68 68 69 69 70 70 71 71 72 72 73 73
24 22 24 22 22 22 19 23 24 29 35 39 39 44 37 36 39 37 39 38 43 46 53 56 57 56 54 54 56 57 57 57 58 60 60 61 60 61 62 61 59 57 56 58 60 61 62 63 65 67 68 68 68 69 69 70 70 70 71 71 72 72 73
24 22 25 27 27 23 21 18 25 25 36 34 32 33 37 42 38 36 36 37 44 48 58 55 58 58 56 56 57 57 58 61 62 63 63 62 62 63 63 63 60 59 57 57 59 61 62 62 65 67 68 68 68 69 69 70 70 71 70 71 71 72 73
25 25 26 29 32 25 24 31 33 31 32 35 34 29 31 42 44 44 42 39 40 53 60 56 56 59 59 59 59 59 60 60 62 63 64 64 63 64 65 65 66 66 67 67 63 61 61 62 65 66 68 68 69 69 69 70 71 71 71 71 71 71 72
35 34 35 34 32 34 35 34 32 42 43 39 32 32 35 40 43 39 39 38 42 51 60 60 58 58 59 61 60 60 60 60 61 63 64 65 65 65 65 66 66 66 67 68 67 67 66 64 65 66 68 68 69 69 70 70 70 71 71 71 72 71 72
31 32 34 31 33 32 33 33 33 45 49 48 39 38 42 40 40 40 35 32 38 52 60 60 60 60 60 61 63 61 61 61 61 63 64 65 66 65 65 66 66 66 66 66 67 67 67 67 67 67 68 69 69 70 70 70 71 71 71 71 72 71 71
27 28 30 29 31 32 33 36 44 49 50 50 38 27 36 33 41 39 36 37 46 57 59 59 60 60 61 63 63 64 63 62 62 63 64 65 65 65 65 65 65 65 65 66 66 67 67 68 68 68 68 68 69 70 70 70 71 71 72 72 72 71 71
31 31 37 37 39 37 41 46 47 49 51 51 34 34 34 31 37 38 40 43 52 54 57 58 59 59 60 61 63 63 64 64 64 64 64 65 65 65 65 65 65 65 65 65 66 67 67 67 68 68 68 68 68 69 69 69 70 71 71 71 71 71 71
35 34 39 39 45 45 45 48 48 49 50 51 50 38 30 43 38 34 43 50 50 53 56 58 58 59 61 62 63 63 64 63 64 65 65 66 65 65 65 65 65 65 65 65 66 67 68 68 68 69 69 69 69 70 70 70 71 71 70 70 70 70 70
38 39 41 44 46 47 48 49 49 49 50 51 50 49 51 50 34 32 44 52 53 55 57 58 59 59 61 62 62 64 64 65 65 64 64 64 64 65 65 65 65 65 66 66 66 67 68 68 68 69 69 70 70 70 70 70 71 71 70 70 70 69 69
40 40 42 43 45 46 46 45 46 49 50 50 51 52 54 50 50 53 55 55 55 58 59 59 60 61 62 62 64 64 64 64 65 65 64 65 65 65 65 65 65 65 66 66 67 67 67 67 68 68 69 69 69 69 69 70 70 71 71 70 69 68 68
37 38 40 44 45 45 43 44 44 48 50 50 51 53 53 55 55 55 56 56 55 59 60 60 61 62 63 63 62 63 64 64 64 65 65 65 65 66 66 66 66 66 66 67 67 67 67 67 67 68 68 69 69 69 69 69 70 70 70 70 69 69 68
32 36 38 40 42 43 43 43 44 48 50 50 51 51 53 53 53 55 55 54 55 59 61 61 61 61 61 62 62 63 63 64 64 64 64 64 65 66 66 66 67 67 67 67 67 67 66 67 67 67 68 68 69 69 69 69 70 70 70 70 69 69 69
32 37 40 42 43 40 37 41 44 49 50 51 52 52 54 54 55 54 53 53 58 60 61 59 60 60 60 60 61 61 62 63 64 64 64 65 65 66 66 67 67 67 66 66 66 66 67 67 67 68 68 68 68 68 68 69 70 69 69 69 69 68 68
30 36 39 42 35 30 34 45 50 52 51 51 51 51 53 54 55 54 56 56 58 60 59 59 58 59 59 59 60 62 62 63 64 65 65 65 64 64 64 65 65 65 65 65 65 66 66 67 68 68 69 68 69 69 69 69 68 68 68 68 69 69 69
29 35 38 35 30 33 44 48 53 54 53 53 52 53 53 54 55 54 53 54 56 57 58 58 59 60 61 62 62 63 64 64 63 63 63 63 63 63 63 62 63 63 63 63 64 64 65 66 66 67 67 68 68 68 68 68 68 68 68 68 68 69 68
32 33 32 25 28 39 45 49 49 50 51 52 50 50 52 54 55 54 53 55 56 57 57 59 60 60 61 62 62 63 63 64 63 63 63 63 63 62 62 62 63 63 63 63 63 63 64 64 65 66 66 66 66 66 66 67 67 67 67 67 67 67 67
28 29 31 32 39 40 42 44 45 46 44 45 45 43 47 54 56 56 55 55 57 57 58 59 60 59 59 59 60 62 63 63 63 63 63 63 63 63 63 63 62 62 62 62 62 62 62 63 63 64 64 64 64 64 63 64 64 64 64 64 64 65 66
36 32 32 32 33 32 37 42 47 49 50 49 49 46 44 49 55 57 56 56 57 57 58 58 58 56 56 55 57 61 62 62 62 62 62 63 62 62 62 62 62 61 61 62 62 61 61 61 61 62 63 63 63 62 62 62 62 61 62 62 63 64 64
33 32 29 29 31 33 40 41 45 48 49 50 47 41 39 46 54 56 57 56 57 57 57 56 55 54 52 53 57 61 62 62 62 61 62 62 62 62 62 61 61 61 61 61 61 61 60 60 60 61 61 61 61 60 60 60 60 60 61 61 62 62 62
37 32 30 30 34 34 40 44 47 48 50 50 42 34 36 46 55 56 56 56 56 56 55 55 55 53 52 54 57 62 62 63 63 62 61 61 61 61 61 61 61 60 61 60 59 59 59 59 59 59 59 60 60 59 59 59 59 59 59 59 60 61 61
38 37 32 33 34 40 46 47 48 50 52 44 36 33 40 50 55 56 56 56 56 56 55 54 53 54 56 57 60 62 62 61 61 61 62 62 61 60 60 59 60 58 58 59 58 58 58 58 58 59 59 59 59 59 58 57 57 57 58 58 59 59 60
34 33 33 32 34 38 44 48 49 50 44 35 36 42 47 55 55 56 57 56 56 56 56 55 55 57 60 61 61 61 60 60 60 61 61 60 60 60 60 59 57 56 56 55 55 55 56 56 57 56 56 56 56 55 56 56 56 57 57 58 58 59 58
36 33 31 30 27 36 47 46 46 48 42 41 43 51 54 55 55 56 57 57 56 56 55 56 58 59 60 60 60 60 59 59 59 58 57 56 57 58 56 55 56 53 52 52 53 53 54 55 56 56 56 56 56 55 55 56 57 57 56 57 59 60 59
31 31 30 30 34 42 47 45 41 46 47 48 52 53 52 54 55 56 55 56 57 57 56 57 58 59 59 59 59 58 58 58 58 58 58 55 53 52 53 53 55 57 56 56 56 56 57 57 56 56 56 57 57 56 55 56 59 59 57 58 60 60 60
35 34 36 39 44 45 47 48 48 49 51 54 54 55 55 55 55 56 56 56 57 56 56 57 58 58 58 59 58 57 57 57 58 57 56 53 52 52 53 54 56 56 55 55 56 56 56 57 57 57 57 56 57 56 57 60 59 59 60 61 59 57 57
44 44 45 47 46 47 49 51 52 53 54 54 56 56 55 55 56 56 56 56 56 56 56 56 56 57 58 58 57 57 57 57 57 57 54 53 53 53 53 54 55 55 55 55 55 55 56 56 57 57 56 56 56 55 58 60 57 58 59 59 59 58 58
37 37 45 47 48 50 51 51 49 51 52 53 54 55 55 55 56 57 57 57 56 56 56 55 56 56 58 58 56 56 56 56 56 55 54 53 53 52 53 55 55 54 55 55 55 55 55 55 55 56 56 56 57 58 58 58 58 59 60 60 60 55 54
37 40 45 47 50 51 52 53 53 50 50 52 52 54 55 56 58 57 58 58 57 57 56 56 55 56 57 57 56 56 56 56 55 54 54 53 52 53 54 54 54 54 54 54 55 55 54 54 56 56 56 56 56 55 56 56 57 59 60 57 55 53 53
42 44 45 48 50 50 52 53 53 52 50 49 50 51 53 54 55 56 56 58 57 56 55 55 55 55 56 56 56 56 56 56 55 54 53 53 53 53 53 53 54 53 54 54 54 55 54 53 54 55 55 55 55 55 56 56 57 59 60 60 58 52 54
39 41 42 46 46 44 46 50 52 52 52 51 52 52 53 54 53 54 54 54 56 57 57 56 56 55 56 56 56 56 56 56 55 54 53 53 53 53 53 54 54 55 55 54 54 54 52 53 54 55 54 54 55 56 56 56 57 59 58 55 53 53 53
40 42 44 45 45 45 46 47 51 51 53 51 52 52 52 52 52 53 54 54 54 55 56 57 56 56 56 56 56 55 55 55 54 54 54 53 53 53 55 55 54 54 54 55 54 53 53 55 55 55 53 53 53 54 54 55 56 56 56 55 53 53 56
42 43 45 46 44 44 46 48 49 50 49 49 50 50 50 51 51 52 53 54 54 54 55 56 57 56 56 56 56 56 56 55 54 54 53 53 53 55 55 54 55 55 54 54 54 54 53 54 54 54 54 53 52 54 54 54 55 55 55 55 51 51 53
41 44 46 46 46 47 49 49 49 49 50 49 49 49 50 50 51 51 51 51 52 53 54 54 55 57 57 57 57 58 58 58 58 56 58 57 55 54 54 55 55 55 55 55 54 53 53 53 52 53 51 53 54 55 54 54 54 53 54 56 53 51 52

ECMWFFLT2_sfc_dewp_114.txt.gz
Dewpoint
21 23 51 51 49 42 45 42 40 40 43 47 44 45 46 45 40 41 47 48 51 57 57 59 60 59 58 61 62 61 59 57 58 59 60 60 56 53 55 58 60 60 61 62 62 63 63 64 65 65 67 68 68 69 69 70 70 72 72 72 72 72 72
25 25 50 50 47 50 46 43 43 43 46 46 42 37 39 37 34 37 46 46 47 44 45 59 58 58 59 59 59 59 58 57 57 58 60 61 58 54 54 57 60 60 61 62 62 63 63 64 64 65 67 68 68 69 69 69 70 71 72 72 72 72 72
26 26 49 49 50 43 50 50 50 44 39 36 39 40 35 35 34 35 41 46 47 48 48 55 57 57 58 59 60 58 57 57 57 58 59 60 60 56 55 56 59 60 61 62 62 63 63 64 65 65 66 68 68 69 69 69 69 70 71 72 72 73 73
27 24 42 45 35 28 32 40 46 47 46 39 38 37 41 38 35 34 33 42 39 49 49 55 55 57 58 57 59 59 58 57 57 57 59 60 61 59 56 55 57 59 60 61 62 63 63 64 64 65 66 67 68 69 69 69 70 70 71 72 73 73 73
25 24 25 25 27 24 25 24 35 39 36 47 41 41 37 34 34 33 34 34 41 46 51 56 56 58 59 58 58 58 58 58 58 57 58 60 60 60 58 56 56 58 60 61 62 63 63 64 65 65 66 66 67 68 69 70 70 70 70 71 72 73 73
27 23 25 26 29 25 26 22 34 31 29 30 31 32 38 41 35 32 33 33 42 48 59 58 56 58 59 58 56 56 57 57 59 59 59 60 60 61 59 56 56 57 59 61 62 63 63 64 64 65 66 67 67 68 68 69 69 70 70 71 72 73 73
27 27 29 33 33 30 24 41 43 39 32 36 34 28 32 40 41 43 38 35 37 54 60 60 58 61 60 58 56 56 58 58 59 60 60 60 60 61 61 58 57 57 58 60 61 63 63 64 64 65 66 67 67 68 69 69 70 70 71 71 72 73 73
39 34 34 36 35 35 35 34 39 48 48 49 38 33 35 38 40 38 37 36 39 50 60 60 60 61 64 62 56 56 58 59 60 62 63 63 62 62 63 61 60 59 59 60 62 63 63 64 64 65 67 68 68 69 69 70 70 70 71 71 72 72 73
34 30 32 33 37 37 34 33 43 49 50 50 47 37 40 38 40 39 35 32 36 50 60 60 60 60 63 63 64 62 62 62 63 63 64 64 64 64 64 63 63 63 62 62 63 63 63 64 64 66 67 68 68 69 70 69 70 71 71 72 72 72 72
23 24 27 31 37 39 37 41 49 50 50 51 47 29 37 31 38 39 35 35 43 55 58 59 60 60 61 63 64 62 61 61 62 64 65 65 64 64 64 64 64 63 63 63 64 64 65 65 66 67 68 68 69 69 70 70 70 71 72 72 72 72 72
27 30 37 39 41 41 45 47 48 49 51 52 41 37 35 30 36 38 39 40 52 55 57 58 59 60 60 61 63 61 62 63 63 63 65 65 65 65 65 65 64 64 64 63 64 65 65 66 67 67 68 69 69 70 70 71 71 72 72 72 72 72 72
32 34 37 36 46 45 47 47 47 49 50 52 51 42 36 45 33 29 40 49 53 54 56 57 59 59 61 62 63 63 62 63 63 64 65 66 65 65 65 65 65 64 64 65 66 66 66 67 67 68 68 69 69 69 70 70 71 72 72 72 72 72 72
38 36 37 40 47 47 46 46 47 49 50 52 51 52 53 50 32 28 45 52 53 55 57 58 59 60 60 61 63 64 64 64 63 63 64 64 65 65 65 65 65 65 65 65 66 67 67 67 67 68 68 69 70 70 70 71 71 71 72 72 72 72 72
39 40 41 42 45 46 45 45 47 49 50 51 52 52 54 51 52 52 54 55 55 57 58 59 60 61 62 63 64 64 64 64 64 63 63 64 65 65 65 65 65 65 66 66 67 67 67 67 68 68 68 69 69 70 70 71 71 72 72 72 71 71 71
35 36 42 41 44 43 42 44 47 49 49 51 52 52 53 54 54 54 55 55 55 59 60 60 62 62 62 63 63 63 64 65 65 63 63 64 65 65 65 65 65 66 66 67 67 67 67 67 68 68 68 69 69 70 70 71 71 71 72 71 71 71 71
29 34 39 41 42 42 41 42 44 47 48 48 51 51 53 53 52 54 55 54 54 58 61 61 61 61 61 61 62 62 63 64 64 64 64 65 65 66 66 66 66 66 66 66 67 67 67 68 68 68 68 69 69 69 70 70 71 71 71 70 70 70 70
27 33 41 44 42 35 33 37 43 46 47 49 51 53 54 53 53 53 51 52 56 60 61 59 59 60 60 60 61 62 63 64 64 64 65 65 66 66 66 66 66 66 66 67 67 67 67 67 68 68 69 69 68 69 69 70 70 69 70 70 69 68 69
25 32 38 40 34 29 31 41 47 51 49 49 50 51 53 54 54 54 54 54 56 58 58 58 58 59 59 61 62 63 63 64 64 64 64 64 64 65 65 66 65 65 66 66 67 67 67 68 68 68 69 69 69 69 69 69 69 68 68 68 68 68 69
26 33 36 32 27 32 42 46 50 53 53 53 53 53 53 54 54 54 53 54 55 56 57 57 58 59 61 62 62 63 64 64 63 63 63 63 62 62 62 63 63 64 64 65 65 66 67 68 68 68 68 68 68 68 68 68 68 68 68 68 68 68 69
29 30 29 21 25 36 42 44 50 52 51 50 49 48 51 54 54 54 54 55 55 56 57 58 60 59 60 61 62 62 62 63 63 63 62 62 62 61 62 62 63 63 63 64 64 64 67 68 68 68 68 68 68 68 68 67 67 67 67 67 67 67 67
26 26 28 25 35 38 41 43 44 49 46 45 46 43 44 50 54 54 54 55 57 57 58 59 59 60 61 59 59 62 62 62 62 62 62 62 62 62 62 62 62 63 63 63 63 64 64 64 65 65 66 67 66 66 66 66 66 65 65 65 65 66 66
35 32 31 30 31 30 36 42 46 49 49 48 47 47 45 47 53 55 55 55 57 57 57 58 58 58 57 55 56 60 62 62 62 62 62 62 62 62 62 62 62 63 63 64 64 63 63 63 64 64 65 64 64 64 64 64 64 64 64 64 64 65 65
33 31 28 28 29 33 40 41 44 48 49 49 46 40 37 43 53 56 56 56 57 57 57 57 56 55 54 53 57 60 61 61 61 61 61 61 61 61 61 60 60 61 62 62 62 62 62 61 62 64 64 63 63 62 63 63 63 63 63 63 63 64 64
34 31 29 28 32 33 40 43 45 47 49 45 39 33 35 43 53 56 57 57 57 57 56 56 54 54 53 54 58 61 61 62 62 61 60 60 60 60 61 61 61 61 61 60 60 60 60 60 61 61 62 62 62 61 61 62 61 61 61 62 63 63 63
37 35 29 31 32 39 43 45 46 48 50 42 35 32 37 45 54 56 57 57 57 57 56 55 52 53 56 59 61 61 61 60 60 60 60 60 60 59 59 59 60 59 59 58 57 58 58 59 59 61 61 60 60 60 60 59 59 60 60 61 60 60 60
33 33 30 30 32 36 42 45 48 50 42 36 35 40 45 52 54 55 57 57 57 57 56 55 54 58 61 61 61 60 60 59 57 57 58 59 59 59 60 58 56 55 55 55 55 55 56 56 56 56 57 58 58 58 57 57 58 60 60 60 58 57 57
34 31 31 28 22 35 45 46 46 47 40 39 42 49 53 55 55 56 56 56 57 56 56 58 60 60 60 60 59 59 58 56 56 56 56 56 57 57 57 56 57 55 55 55 56 56 56 56 56 55 54 55 56 56 56 58 59 60 60 59 58 57 56
30 30 29 28 33 41 45 44 40 44 47 47 48 53 52 54 55 56 55 55 56 56 58 59 60 59 59 59 59 58 58 57 56 54 54 54 54 54 54 55 56 57 57 56 56 56 56 57 57 57 57 57 58 58 57 58 59 60 60 58 57 56 57
35 33 35 37 41 44 46 47 46 47 50 53 53 55 54 54 55 56 55 56 56 58 59 59 59 59 59 58 58 58 57 56 54 53 52 53 54 55 56 56 57 56 55 55 55 56 56 56 57 57 57 57 57 57 58 60 60 59 59 58 56 56 57
42 42 42 45 47 48 50 51 51 52 53 54 56 56 55 55 56 57 57 57 57 58 59 59 58 58 58 57 57 57 57 56 55 54 53 54 55 55 56 56 57 56 55 55 55 55 55 55 56 58 56 56 57 58 59 60 59 60 58 57 56 55 56
37 37 43 47 47 49 50 51 52 52 52 53 54 54 55 56 57 57 57 58 58 58 58 58 58 57 57 57 57 57 57 55 53 52 53 53 54 55 55 57 57 55 55 55 55 55 55 55 56 57 57 57 57 58 58 58 59 60 58 57 58 56 57
37 38 43 46 49 50 51 51 52 52 53 54 54 54 56 57 58 57 57 57 57 58 57 58 58 57 57 56 56 56 56 55 54 53 53 53 54 54 55 56 56 55 55 54 55 55 55 55 56 56 56 55 56 56 57 58 59 61 61 59 55 55 57
41 43 45 47 49 49 50 52 53 54 55 55 54 54 55 56 57 57 57 57 56 57 57 57 58 57 57 56 56 56 55 55 54 53 53 53 53 53 54 55 55 54 55 55 55 55 55 55 55 55 55 55 55 56 57 58 58 59 60 60 58 54 55
40 42 44 47 42 42 47 50 52 53 54 55 54 55 55 56 55 56 57 56 57 56 56 57 58 58 57 56 56 56 55 55 54 53 54 53 53 54 55 55 55 56 56 55 55 55 54 55 55 55 55 55 55 55 56 56 56 57 58 58 55 56 55
39 43 45 47 45 46 49 51 53 54 55 55 54 55 55 55 56 56 56 56 56 56 56 58 58 57 57 56 56 56 55 54 54 54 54 53 53 54 55 54 54 55 56 56 55 55 56 57 56 55 55 54 54 55 55 56 55 55 56 56 55 55 58
42 44 46 47 48 47 48 52 54 54 55 54 54 55 55 56 56 57 56 57 56 56 56 57 57 56 56 56 56 55 55 54 54 54 54 54 54 55 55 55 55 55 55 55 55 55 56 56 55 54 54 54 54 55 55 55 55 56 56 55 54 55 55
41 45 47 47 49 49 50 51 52 53 54 54 52 52 53 54 55 56 56 56 57 56 56 57 57 57 56 56 55 55 55 55 56 56 59 57 56 55 55 55 55 55 55 55 54 54 55 54 55 55 53 55 55 55 55 55 55 56 56 56 52 52 58

ECMWFFLT2_sfc_dewp_117.txt.gz
Dewpoint
23 36 50 51 50 43 48 43 42 40 42 41 46 47 47 47 44 42 51 48 52 53 53 55 58 57 56 58 60 63 63 61 60 60 59 56 55 56 58 60 61 63 64 64 64 65 65 65 66 67 69 70 71 71 71 72 72 73 73 74 74 74 75
36 27 37 48 48 48 45 42 42 44 46 43 42 38 45 41 37 38 48 43 46 47 43 59 57 56 56 57 57 59 62 64 59 59 61 60 57 58 60 62 63 63 64 64 65 65 66 65 65 67 70 70 71 71 71 71 72 73 72 73 72 73 74
36 46 48 46 46 41 43 44 44 39 43 37 44 40 36 36 34 35 42 46 46 48 46 55 55 55 55 57 58 58 59 60 59 59 61 61 58 57 59 61 63 63 64 64 65 65 66 67 67 68 69 70 70 70 70 71 71 71 71 71 71 73 73
27 34 47 44 49 38 43 44 42 46 47 48 40 41 40 39 37 37 33 44 36 50 48 54 55 56 56 57 57 58 58 58 58 59 60 61 61 59 59 61 63 63 62 64 65 66 66 67 67 68 69 68 68 69 70 71 71 72 72 71 72 72 72
29 29 30 30 31 39 36 35 39 39 41 49 40 45 37 37 38 37 35 34 36 48 55 58 58 57 58 57 57 58 58 58 59 59 59 62 63 60 60 61 62 63 63 62 64 66 66 67 67 67 68 68 68 68 69 71 71 70 70 71 73 73 72
27 28 27 31 30 30 30 35 39 41 35 36 34 38 38 37 35 34 35 33 37 51 59 59 58 58 58 58 57 56 57 59 60 60 59 60 63 63 60 59 60 62 64 64 64 66 65 65 67 68 68 68 69 69 68 69 68 70 70 72 74 74 74
26 29 30 34 34 36 48 47 46 46 37 35 33 31 35 38 37 40 42 37 37 55 59 60 59 60 59 59 58 57 57 58 59 60 60 62 63 64 62 60 60 62 64 65 65 66 65 66 66 67 67 68 69 70 71 71 70 71 71 72 75 75 75
32 35 34 35 34 36 39 45 50 49 44 46 38 36 39 33 42 41 40 38 39 56 60 60 59 62 62 61 58 58 58 59 60 63 62 63 64 65 64 62 62 64 64 66 67 66 67 67 68 67 68 69 70 71 72 72 72 73 73 74 75 75 75
27 28 33 34 40 40 41 42 49 51 51 51 51 50 45 38 37 38 34 31 35 55 59 60 60 61 62 62 62 61 61 64 64 64 65 64 65 65 65 64 62 63 64 66 67 68 68 68 68 68 69 70 70 71 72 71 72 73 73 74 74 75 75
19 23 24 26 34 39 42 45 48 51 50 49 43 36 42 34 43 44 38 36 47 56 58 59 59 60 61 63 63 64 64 64 65 66 66 66 66 65 66 66 64 63 64 66 67 68 68 69 69 69 69 69 70 71 71 72 72 74 74 74 74 74 75
24 30 40 41 43 42 36 40 47 49 51 49 41 40 37 34 44 39 44 45 48 54 55 57 59 60 60 62 62 62 63 64 65 66 66 67 66 66 67 67 66 66 65 64 66 68 68 69 69 69 70 70 71 72 72 72 72 73 74 74 74 74 74
34 33 40 39 43 40 42 41 43 50 50 50 49 45 44 51 46 34 50 53 51 53 56 56 58 59 61 62 63 63 63 64 64 65 66 66 67 67 67 67 66 65 65 66 66 67 68 69 70 69 70 70 71 72 71 72 73 73 72 73 74 74 74
37 37 40 41 46 46 46 46 48 47 51 48 48 51 51 51 42 38 51 54 52 54 57 57 59 60 61 62 63 64 64 64 64 65 65 65 65 66 66 67 67 67 66 67 67 67 68 69 69 70 70 71 72 72 73 73 73 73 74 74 74 73 74
35 36 37 42 44 45 45 48 49 50 50 50 50 50 52 51 52 52 54 54 55 57 58 59 60 62 62 62 64 64 64 64 64 64 63 65 65 66 66 66 66 67 67 67 68 69 69 69 69 70 71 71 72 72 72 73 73 74 75 75 75 74 75
32 35 38 42 42 44 41 44 47 50 51 51 51 50 51 53 53 52 53 54 54 58 60 61 62 62 63 63 63 64 64 64 64 63 63 64 65 65 66 66 67 68 68 68 69 69 69 69 70 70 71 72 72 72 73 74 74 75 74 74 74 75 75
31 34 37 37 40 40 40 39 42 48 49 46 51 50 52 52 52 54 53 52 53 58 61 61 62 62 62 62 62 63 64 64 64 63 63 64 65 66 66 66 67 68 68 68 69 69 70 70 70 71 71 71 72 72 73 73 74 75 74 74 74 74 75
28 36 38 41 40 36 33 33 40 49 50 52 52 52 54 54 54 52 50 51 56 59 60 59 59 59 60 61 61 62 63 65 65 64 65 66 66 67 67 67 67 67 68 68 69 69 69 70 70 71 71 71 71 72 72 74 74 74 74 74 73 73 72
28 34 37 42 33 29 29 50 50 51 51 52 51 52 53 55 55 54 55 56 57 57 59 58 58 58 59 60 62 63 63 63 64 65 65 65 65 66 67 67 67 67 68 69 69 69 69 69 70 70 71 71 72 73 72 73 73 73 73 72 72 71 71
25 36 37 30 23 26 46 47 50 54 52 53 51 53 53 54 56 56 55 56 56 57 57 58 58 60 60 60 60 61 62 63 63 63 62 63 64 64 64 65 65 66 67 67 68 68 69 70 70 70 70 71 71 71 71 71 72 72 72 71 71 71 71
35 30 30 22 22 40 44 45 45 52 53 51 50 50 52 55 55 57 56 56 56 57 58 59 60 59 59 60 61 61 62 62 62 62 62 62 62 62 63 63 63 64 64 64 65 66 67 68 69 69 69 70 70 70 71 70 70 70 70 70 70 70 69
29 31 31 26 41 39 41 43 45 47 48 49 48 45 47 53 55 56 56 56 56 57 59 59 59 59 59 58 59 61 62 62 62 62 61 62 62 62 62 63 63 64 64 64 64 65 65 65 66 67 68 69 69 69 69 69 70 70 69 68 68 69 68
37 39 36 30 29 27 32 46 46 49 49 47 48 48 46 53 55 57 56 56 56 57 58 59 59 58 58 56 57 60 62 62 61 61 61 61 61 61 61 62 62 63 64 64 64 64 64 64 64 65 66 66 66 66 66 67 67 66 66 67 68 67 67
36 35 31 32 28 26 41 44 46 48 48 47 51 45 40 51 56 56 56 55 57 58 58 58 58 58 55 55 57 60 61 61 61 61 61 60 61 61 61 61 62 62 62 63 63 63 62 62 63 65 65 65 65 63 64 64 64 63 63 64 64 65 66
36 34 32 28 36 25 46 47 45 45 49 49 46 39 36 49 56 56 56 56 56 58 58 58 57 57 55 55 57 61 61 61 61 61 60 60 60 60 60 60 61 61 62 62 62 62 62 62 63 63 63 63 62 62 62 62 62 61 61 62 63 64 65
39 36 34 34 35 42 46 46 47 49 50 46 40 36 41 53 56 57 56 56 57 58 58 57 57 57 60 60 61 61 60 60 60 60 59 59 59 58 58 58 60 59 60 60 60 61 61 62 62 62 62 62 61 61 60 60 59 60 60 61 60 60 61
33 37 31 30 35 40 44 47 48 51 46 39 39 48 53 55 57 57 57 57 57 58 58 57 58 60 60 61 60 59 58 57 58 57 57 56 56 57 59 59 59 59 59 59 59 60 59 58 59 60 60 60 60 60 59 59 59 60 59 59 60 60 60
37 39 33 32 25 43 46 49 48 48 43 42 48 53 57 58 58 57 58 58 58 58 57 59 60 60 59 58 57 56 55 55 55 55 55 54 55 57 58 57 58 57 58 58 58 59 60 60 59 59 59 60 59 59 58 59 60 60 60 60 59 59 59
31 35 32 29 34 48 49 49 43 48 50 53 53 55 56 58 57 58 57 58 58 57 57 59 60 59 59 58 56 55 55 55 55 55 55 55 55 55 54 55 55 56 56 57 57 58 59 60 61 61 59 59 60 59 59 59 59 59 59 60 60 60 61
36 36 38 45 49 49 51 51 51 51 54 56 57 57 58 57 57 60 58 59 59 58 58 59 59 58 58 56 54 54 54 54 54 54 55 55 55 54 54 54 56 55 54 55 55 56 56 57 58 59 58 58 58 58 60 60 59 59 60 60 60 59 58
45 47 48 49 50 51 52 52 54 55 56 55 56 57 57 58 58 59 59 59 58 59 60 58 59 58 58 56 54 54 53 53 55 56 56 56 56 55 55 55 55 54 54 55 55 55 56 56 57 59 58 58 59 60 61 60 59 59 59 60 60 59 59
39 38 50 50 51 52 52 53 53 55 56 57 57 57 57 58 58 59 60 61 60 60 60 59 58 58 57 56 54 54 54 54 55 55 56 57 58 58 57 57 57 56 55 54 54 54 55 56 55 56 58 58 61 62 61 59 59 61 61 61 61 60 60
41 45 50 50 51 53 54 53 54 54 55 57 57 57 57 57 57 58 58 59 61 60 59 59 58 57 57 56 56 55 55 55 56 57 57 58 58 58 59 59 59 57 56 55 55 56 57 57 57 57 58 58 60 61 61 59 59 60 60 60 59 59 58
46 48 49 50 51 52 53 55 56 56 56 56 58 58 56 56 57 59 59 59 59 60 61 59 58 57 56 55 55 54 55 56 57 58 58 59 59 58 58 58 59 58 57 56 56 56 56 57 57 58 59 59 59 59 59 60 61 60 59 59 57 53 53
42 42 48 50 46 46 50 53 55 56 57 57 57 58 57 58 58 59 59 59 60 59 60 60 57 58 57 56 56 54 54 56 57 58 57 57 57 58 58 58 58 58 59 58 58 58 58 58 58 58 58 58 57 55 56 56 58 59 59 56 55 54 53
36 48 51 53 54 52 53 55 55 57 58 58 58 58 58 58 58 58 58 59 59 59 59 59 59 59 59 58 56 56 56 57 57 57 56 55 55 56 57 57 58 58 59 59 58 58 58 58 56 56 57 57 57 55 59 59 57 59 58 57 55 54 57
45 48 51 52 52 49 52 55 56 58 59 59 57 58 58 59 59 58 58 58 57 58 59 59 59 59 60 58 56 56 56 56 57 56 55 55 55 55 56 58 58 58 58 59 59 59 59 57 56 56 54 56 57 53 58 59 59 59 58 57 56 54 53
44 49 52 53 54 53 54 55 56 57 59 60 58 59 59 59 58 58 58 57 58 57 57 58 59 60 60 60 58 57 57 57 58 58 59 58 57 56 55 56 59 59 59 59 59 59 59 58 58 57 56 57 57 56 58 57 56 57 58 55 52 53 55

ECMWFFLT2_sfc_dewp_123.txt.gz
Dewpoint
22 20 25 26 26 29 37 32 23 23 23 20 25 25 25 30 35 36 38 38 41 46 47 49 47 46 52 55 58 56 56 58 63 63 63 63 60 54 53 54 55 56 58 59 60 61 61 63 63 64 66 66 67 69 68 70 71 71 70 72 71 72 72
25 27 25 26 35 29 29 35 39 31 31 30 32 35 41 38 34 35 38 37 36 44 44 53 53 48 52 53 54 56 56 57 58 59 62 65 65 57 55 56 56 56 58 60 60 60 62 62 62 64 67 67 67 68 69 69 70 70 68 69 68 70 72
24 28 25 23 37 37 30 33 38 29 41 35 35 34 30 30 29 31 32 33 34 36 44 51 50 54 53 52 54 55 55 55 56 58 61 65 66 58 56 55 56 56 58 59 61 61 62 63 64 63 65 66 67 67 67 68 68 68 66 66 67 68 69
23 25 24 26 32 32 35 36 33 33 34 39 40 37 40 29 28 33 37 37 34 47 45 46 50 53 53 54 56 54 56 56 56 57 58 64 64 62 57 55 56 56 56 58 60 61 62 63 62 63 65 63 64 66 66 67 67 68 67 65 66 67 67
18 18 23 21 35 40 38 31 29 32 33 38 39 47 44 34 32 33 33 31 35 52 50 53 55 56 56 55 57 60 56 57 57 56 57 63 65 64 60 59 57 57 57 57 60 62 61 61 61 61 63 63 63 64 65 67 67 65 64 64 65 67 67
16 15 26 26 26 31 32 29 32 31 32 33 33 33 30 29 28 30 29 30 38 50 56 54 55 57 56 57 57 58 59 56 60 62 61 63 63 63 60 56 57 57 59 59 61 61 60 61 62 63 62 63 64 64 63 64 63 65 64 66 69 69 68
14 19 28 29 30 33 32 30 29 28 34 39 41 33 33 30 28 27 30 30 43 52 56 58 57 59 57 56 58 57 60 58 60 62 62 64 63 65 62 57 59 60 60 61 62 61 61 62 63 62 63 64 65 68 68 66 66 67 66 67 69 70 70
17 13 19 27 33 29 27 31 35 38 35 34 38 42 43 31 32 30 30 33 40 52 59 58 57 61 59 57 58 59 61 57 61 64 62 65 67 64 65 64 61 63 63 62 64 63 64 65 65 64 65 67 68 68 70 70 68 69 68 70 69 70 70
21 20 28 28 30 33 32 32 39 42 43 43 37 41 45 33 29 29 30 31 41 54 56 57 59 61 58 59 57 59 61 62 62 63 63 64 67 67 65 64 62 63 64 65 67 67 68 66 63 65 65 66 67 68 68 68 70 71 69 70 70 70 71
21 22 20 25 31 39 32 40 43 43 46 46 37 44 39 31 35 37 35 34 46 52 54 55 57 60 61 60 60 62 63 63 63 63 64 64 65 68 68 66 63 64 64 65 65 66 67 68 66 68 70 67 68 70 69 70 70 71 71 70 71 72 71
26 28 31 27 31 29 27 35 36 35 34 33 45 40 35 31 36 37 44 44 45 41 52 53 56 57 58 59 61 61 60 63 64 64 65 66 67 68 69 69 66 64 65 63 65 66 67 68 69 70 70 71 72 72 71 71 71 72 72 72 72 73 74
27 21 24 22 30 29 27 26 30 30 33 38 38 42 43 47 38 35 50 49 39 43 48 53 57 58 60 60 60 60 61 62 62 64 67 66 67 67 68 69 68 67 64 66 68 69 69 70 70 69 71 70 72 73 72 72 72 72 71 71 73 73 74
20 18 20 20 31 36 35 32 32 33 34 35 38 38 40 45 39 35 44 52 49 48 50 54 57 59 60 59 61 62 62 63 64 64 63 64 65 68 67 68 68 67 68 68 68 69 69 70 71 70 70 71 72 73 74 74 73 74 74 74 73 73 75
18 15 15 19 21 37 33 31 31 32 33 35 33 32 38 45 46 49 44 48 49 48 52 55 59 61 60 61 63 63 63 62 64 64 65 65 67 66 66 67 67 68 66 68 69 69 70 70 71 71 71 72 72 73 74 74 74 74 74 74 74 74 75
19 18 17 19 20 23 32 31 32 31 32 33 33 34 34 34 37 41 45 46 50 59 58 58 61 61 61 61 61 61 63 64 64 64 64 65 67 66 66 66 67 67 67 68 67 68 70 70 71 72 72 72 73 73 74 75 74 75 74 75 75 75 75
18 16 15 19 18 20 22 23 25 30 31 32 31 34 34 37 43 44 41 41 41 50 59 59 61 60 60 60 61 62 63 63 64 64 65 65 66 66 67 66 66 68 67 68 68 68 69 70 71 72 72 72 73 73 74 74 74 74 74 74 74 75 75
22 19 17 20 24 25 23 22 23 24 26 29 31 35 43 44 47 43 42 40 50 56 58 58 59 59 58 59 61 62 63 64 64 64 64 64 66 66 65 67 66 67 68 67 70 70 71 70 70 71 72 72 73 74 73 74 74 75 74 74 74 75 76
22 20 18 26 28 21 24 38 37 35 31 36 37 38 39 41 51 50 51 52 53 56 58 58 58 59 60 61 62 63 63 63 64 64 65 66 66 65 65 66 66 66 67 67 69 69 71 72 72 72 72 73 73 74 74 75 75 74 73 73 74 73 75
23 23 26 25 23 22 36 35 35 36 35 36 35 36 38 40 42 47 49 50 53 57 58 60 61 61 60 61 61 62 62 63 63 64 64 65 64 64 64 65 65 65 66 68 68 70 70 71 70 71 71 71 72 72 72 72 72 73 73 73 73 73 74
25 24 22 20 19 34 32 30 31 34 29 28 32 34 32 35 39 45 46 53 55 57 59 60 61 60 60 60 62 62 63 63 62 62 63 64 64 64 64 64 65 66 66 67 67 68 70 70 70 71 71 72 71 72 72 71 72 72 72 72 72 72 72
24 23 20 23 31 27 27 29 32 32 34 35 36 35 40 44 46 51 55 56 56 59 60 61 61 61 60 60 60 62 63 63 63 63 63 63 63 64 64 66 66 66 67 67 67 69 69 70 70 70 71 71 71 71 71 72 72 73 73 74 73 73 74
28 23 22 25 22 24 25 32 32 32 32 33 35 40 36 39 39 49 54 54 55 58 59 60 60 60 59 57 58 61 62 63 62 62 63 63 64 64 64 64 66 66 67 67 68 68 68 68 68 69 69 69 69 69 69 69 70 70 70 70 71 72 73
29 30 26 23 24 26 36 38 35 37 35 37 36 35 30 49 52 49 49 51 56 58 58 59 60 58 56 56 59 61 62 62 62 62 62 63 64 64 64 64 64 65 66 67 67 67 67 67 67 67 67 67 67 67 67 67 67 67 67 68 69 70 71
27 27 23 22 28 24 35 35 33 32 36 35 36 28 31 48 49 51 58 56 58 57 59 58 58 58 55 57 59 62 62 62 63 62 62 63 63 64 64 64 64 65 66 65 65 65 65 65 66 66 66 65 64 64 65 65 65 65 65 66 67 68 70
25 28 23 21 26 32 36 39 39 37 41 37 27 27 43 50 52 54 53 58 58 59 60 59 59 59 60 61 61 60 61 61 62 62 62 63 63 63 63 62 63 64 65 65 64 65 65 65 65 65 65 64 63 63 64 63 64 65 66 66 66 67 69
22 23 19 20 23 45 43 40 37 43 40 28 28 47 51 56 55 54 56 55 56 59 59 61 59 60 60 60 60 60 60 60 60 60 61 62 63 64 63 63 62 63 64 64 65 65 66 64 65 65 64 63 63 63 64 63 64 65 65 65 66 66 67
24 26 24 21 21 47 39 43 39 45 34 46 47 50 54 53 52 53 55 56 56 57 60 59 60 60 60 59 60 59 59 59 59 60 61 61 61 63 62 61 61 61 62 62 62 62 64 65 64 64 64 63 62 62 62 62 63 62 63 65 65 66 66
23 21 24 27 43 42 45 40 36 47 50 51 52 48 50 54 51 54 55 57 58 57 58 59 60 61 60 58 58 61 60 59 59 59 60 61 60 60 60 60 60 60 60 61 61 62 62 62 63 62 60 59 59 58 59 60 60 61 61 62 63 63 64
30 29 29 43 44 46 45 44 45 47 54 53 52 49 45 45 50 56 53 57 59 60 59 60 60 59 58 59 58 60 60 58 57 58 58 58 58 60 60 58 59 58 58 58 58 58 58 58 58 58 57 57 57 57 58 59 59 58 57 57 58 58 59
35 36 37 43 41 40 43 42 47 49 52 47 48 49 47 55 58 56 57 58 60 61 62 60 59 59 59 58 55 59 62 61 57 57 56 56 56 56 56 56 56 56 56 55 55 55 55 55 56 58 57 57 57 58 58 60 59 59 59 58 58 57 56
33 29 40 40 41 44 48 46 50 56 55 51 51 52 53 54 55 57 60 61 62 63 62 61 59 58 56 56 57 58 60 60 59 57 55 54 53 53 52 53 55 53 52 52 53 53 51 52 53 54 56 56 57 58 58 58 59 60 59 59 59 59 58
32 33 47 47 48 49 50 44 46 52 53 56 57 56 55 57 59 59 62 62 61 61 61 59 57 56 55 56 57 57 59 59 58 56 54 56 56 55 55 54 54 53 51 51 52 53 54 55 55 54 55 55 55 56 55 54 54 56 56 54 52 52 50
33 35 40 42 46 45 51 52 50 53 54 55 57 57 57 57 58 60 61 61 61 61 60 59 57 55 55 55 56 56 57 59 57 57 57 57 58 55 54 55 56 56 56 55 56 55 56 56 56 56 56 57 58 59 58 56 56 54 52 53 51 47 47
31 35 45 46 39 46 52 54 54 55 56 55 57 58 58 58 59 60 60 60 60 61 60 58 57 56 55 54 54 54 53 55 57 57 55 55 54 54 53 54 55 57 58 58 57 56 56 57 56 56 55 55 55 54 55 55 55 55 55 52 50 47 46
30 36 41 48 47 51 52 53 52 54 54 54 56 57 58 57 58 59 60 59 59 60 59 57 55 54 54 54 55 55 56 57 59 59 57 58 55 53 54 55 57 57 58 58 58 57 57 57 56 56 56 55 57 56 57 55 53 56 56 55 53 51 53
39 40 47 48 47 49 51 51 52 54 57 56 56 59 58 59 60 59 59 60 58 58 57 55 53 53 53 51 50 52 53 55 57 58 58 56 56 55 53 55 56 55 55 55 55 54 54 54 53 54 53 55 58 56 58 57 57 58 57 55 54 52 53
43 46 48 50 52 50 50 53 55 56 57 57 57 58 59 58 58 61 59 59 58 56 53 53 53 52 47 44 45 47 50 56 60 60 60 57 54 56 56 56 58 58 58 57 57 58 57 57 56 55 55 56 57 56 59 58 58 59 58 56 53 52 54